AF6GL Weather Reports


Display with metric or nautical units.
time (UTC)temp
F
wind
direction
speed
MPH
gust
MPH
rain 1hr
in
rain 24hr
in
rain mn
in
humidity
%
barometer
mb
20170626101947 60 135 0.0 0.0 0.00 0.00 0.00 92 1009.9
20170626100946 60 135 0.0 1.0 0.00 0.00 0.00 93 1009.9
20170626095951 60 135 0.0 1.0 0.00 0.00 0.00 92 1010.0
20170626094946 60 134 0.0 1.0 0.00 0.00 0.00 92 1010.1
20170626093947 60 134 0.0 1.0 0.00 0.00 0.00 92 1010.2
20170626092947 60 127 0.0 1.0 0.00 0.00 0.00 92 1010.1
20170626091945 61 124 0.0 0.0 0.00 0.00 0.00 92 1010.1
20170626090943 61 124 0.0 0.0 0.00 0.00 0.00 92 1010.2
20170626085944 61 124 0.0 0.0 0.00 0.00 0.00 92 1010.2
20170626084945 61 124 0.0 0.0 0.00 0.00 0.00 92 1010.2
20170626083942 61 105 0.0 0.0 0.00 0.00 0.00 91 1010.2
20170626082944 62 105 0.0 0.0 0.00 0.00 0.00 91 1010.4
20170626081943 62 105 0.0 0.0 0.00 0.00 0.00 90 1010.4
20170626080941 62 105 0.0 0.0 0.00 0.00 0.00 90 1010.4
20170626075940 62 105 0.0 0.0 0.00 0.00 0.00 89 1010.4
20170626074940 63 82 0.0 0.0 0.00 0.00 0.00 91 1010.4
20170626073941 63 143 0.0 0.0 0.00 0.00 0.00 89 1010.4
20170626072941 63 143 0.0 1.0 0.00 0.00 0.00 89 1010.4
20170626071946 63 146 0.0 1.0 0.00 0.00 0.00 89 1010.4
20170626070941 63 229 0.0 0.0 0.00 0.00 0.00 89 1010.3
20170626065941 63 229 0.0 0.0 0.00 0.00 0.00 88 1010.2
20170626064937 64 229 0.0 0.0 0.00 0.00 0.00 88 1010.2
20170626063940 64 229 0.0 0.0 0.00 0.00 0.00 88 1010.3
20170626062935 65 229 0.0 0.0 0.00 0.00 0.00 87 1010.3
20170626061935 65 265 0.0 1.0 0.00 0.00 0.00 86 1010.2
20170626060934 65 265 0.0 1.0 0.00 0.00 0.00 86 1010.2
20170626055936 66 290 0.0 1.0 0.00 0.00 0.00 86 1010.1
20170626054933 66 243 0.0 1.0 0.00 0.00 0.00 85 1010.2
20170626053931 66 300 1.0 2.0 0.00 0.00 0.00 84 1010.1
20170626052929 67 280 0.0 2.0 0.00 0.00 0.00 83 1010.1
20170626051932 67 229 0.0 1.0 0.00 0.00 0.00 83 1010.0
20170626050927 67 247 0.0 1.0 0.00 0.00 0.00 82 1010.0
20170626045925 68 283 0.0 1.0 0.00 0.00 0.00 81 1010.0
20170626044925 68 325 0.0 1.0 0.00 0.00 0.00 81 1009.8
20170626043925 68 274 0.0 0.0 0.00 0.00 0.00 81 1009.8
20170626042923 69 215 0.0 2.0 0.00 0.00 0.00 81 1009.7
20170626041923 69 219 0.0 1.0 0.00 0.00 0.00 81 1009.7
20170626040923 69 285 1.0 3.0 0.00 0.00 0.00 81 1009.6
20170626035924 69 263 0.0 2.0 0.00 0.00 0.00 81 1009.5
20170626034923 69 271 1.0 2.0 0.00 0.00 0.00 81 1009.5
20170626033922 69 240 1.0 2.0 0.00 0.00 0.00 80 1009.4
20170626032920 70 222 1.0 2.0 0.00 0.00 0.00 79 1009.2
20170626031922 70 250 1.0 2.0 0.00 0.00 0.00 78 1009.1
20170626030921 71 293 2.0 4.0 0.00 0.00 0.00 77 1009.2
20170626025922 71 266 2.0 5.0 0.00 0.00 0.00 75 1009.1
20170626024924 73 274 2.0 4.0 0.00 0.00 0.00 73 1009.2
20170626023921 74 250 3.0 5.0 0.00 0.00 0.00 71 1009.1
20170626022921 74 285 3.0 6.0 0.00 0.00 0.00 69 1009.1
20170626021920 76 262 2.0 4.0 0.00 0.00 0.00 67 1009.2
20170626020919 76 274 3.0 6.0 0.00 0.00 0.00 66 1009.1
20170626015920 76 282 3.0 6.0 0.00 0.00 0.00 65 1009.1
20170626014920 76 290 3.0 6.0 0.00 0.00 0.00 64 1009.1
20170626013923 77 239 4.0 8.0 0.00 0.00 0.00 65 1009.0
20170626012919 77 269 4.0 7.0 0.00 0.00 0.00 65 1009.0
20170626011915 77 247 3.0 7.0 0.00 0.00 0.00 65 1009.0
20170626010914 76 276 5.0 9.0 0.00 0.00 0.00 67 1008.9
20170626005916 76 294 6.0 9.0 0.00 0.00 0.00 68 1008.9
20170626004920 76 256 6.0 10.0 0.00 0.00 0.00 67 1008.9
20170626003913 76 287 5.0 8.0 0.00 0.00 0.00 67 1008.9
20170626002911 76 297 5.0 9.0 0.00 0.00 0.00 67 1008.9
20170626001914 76 271 5.0 8.0 0.00 0.00 0.00 67 1008.9
20170626000910 77 289 5.0 10.0 0.00 0.00 0.00 67 1008.9
20170625235906 78 274 4.0 9.0 0.00 0.00 0.00 65 1009.0
20170625234915 78 288 6.0 9.0 0.00 0.00 0.00 66 1009.0
20170625233907 78 301 5.0 9.0 0.00 0.00 0.00 65 1009.1
20170625232906 78 276 6.0 10.0 0.00 0.00 0.00 65 1009.1
20170625231905 79 288 6.0 9.0 0.00 0.00 0.00 64 1009.2
20170625230907 79 293 5.0 10.0 0.00 0.00 0.00 62 1009.4
20170625225908 79 278 4.0 10.0 0.00 0.00 0.00 63 1009.5
20170625224906 79 285 6.0 10.0 0.00 0.00 0.00 63 1009.6
20170625223906 79 299 5.0 9.0 0.00 0.00 0.00 63 1009.7
20170625222906 79 257 5.0 10.0 0.00 0.00 0.00 63 1009.7
20170625221905 79 267 5.0 9.0 0.00 0.00 0.00 64 1009.8
20170625220904 78 294 4.0 10.0 0.00 0.00 0.00 66 1009.8
20170625215902 77 295 4.0 8.0 0.00 0.00 0.00 68 1010.0
20170625214901 76 337 4.0 9.0 0.00 0.00 0.00 70 1010.1
20170625213902 75 318 5.0 9.0 0.00 0.00 0.00 72 1010.3
20170625212859 75 283 5.0 9.0 0.00 0.00 0.00 71 1010.1
20170625211905 75 255 5.0 11.0 0.00 0.00 0.00 73 1010.3
20170625210910 74 282 6.0 13.0 0.00 0.00 0.00 74 1010.2
20170625205858 74 260 6.0 11.0 0.00 0.00 0.00 72 1010.3
20170625204853 75 274 6.0 11.0 0.00 0.00 0.00 72 1010.3
20170625203857 74 248 7.0 13.0 0.00 0.00 0.00 72 1010.5
20170625202853 74 188 7.0 15.0 0.00 0.00 0.00 73 1010.4
20170625201857 76 268 6.0 12.0 0.00 0.00 0.00 70 1010.3
20170625200858 74 236 7.0 14.0 0.00 0.00 0.00 72 1010.1
20170625195854 74 266 9.0 17.0 0.00 0.00 0.00 72 1010.1
20170625194854 75 282 7.0 13.0 0.00 0.00 0.00 70 1010.0
20170625193857 76 248 6.0 14.0 0.00 0.00 0.00 69 1010.0
20170625192852 76 271 7.0 13.0 0.00 0.00 0.00 68 1009.9
20170625191855 76 271 7.0 13.0 0.00 0.00 0.00 69 1009.7
20170625190849 76 250 6.0 12.0 0.00 0.00 0.00 69 1009.7
20170625185847 76 282 7.0 13.0 0.00 0.00 0.00 69 1009.5
20170625184848 76 262 8.0 13.0 0.00 0.00 0.00 69 1009.6
20170625183849 78 262 7.0 13.0 0.00 0.00 0.00 66 1009.5
20170625182846 80 246 7.0 13.0 0.00 0.00 0.00 63 1009.4
20170625181847 83 276 6.0 11.0 0.00 0.00 0.00 60 1009.2
20170625180847 83 288 3.0 8.0 0.00 0.00 0.00 59 1009.1
20170625175849 82 280 3.0 6.0 0.00 0.00 0.00 60 1009.1
20170625174852 81 243 3.0 6.0 0.00 0.00 0.00 63 1009.0
20170625173847 80 294 2.0 5.0 0.00 0.00 0.00 64 1009.2
20170625172847 79 285 1.0 5.0 0.00 0.00 0.00 66 1009.2
20170625171848 78 231 2.0 4.0 0.00 0.00 0.00 70 1009.3
20170625170847 77 245 2.0 6.0 0.00 0.00 0.00 70 1009.4
20170625165847 76 289 2.0 4.0 0.00 0.00 0.00 73 1009.5
20170625164846 74 261 1.0 4.0 0.00 0.00 0.00 74 1009.6
20170625163844 73 240 1.0 4.0 0.00 0.00 0.00 76 1009.8
20170625162844 72 36 1.0 5.0 0.00 0.00 0.00 78 1009.8
20170625161845 71 244 2.0 4.0 0.00 0.00 0.00 80 1009.9
20170625160844 70 291 1.0 4.0 0.00 0.00 0.00 82 1010.0
20170625155901 69 297 1.0 3.0 0.00 0.00 0.00 82 1010.2
20170625154840 69 290 1.0 2.0 0.00 0.00 0.00 83 1010.2
20170625153841 67 219 1.0 3.0 0.00 0.00 0.00 85 1010.4
20170625152841 66 299 2.0 4.0 0.00 0.00 0.00 87 1010.5
20170625151843 66 274 2.0 4.0 0.00 0.00 0.00 87 1010.5
20170625150841 66 281 1.0 4.0 0.00 0.00 0.00 87 1010.6
20170625145842 66 46 0.0 2.0 0.00 0.00 0.00 89 1010.6
20170625144838 64 115 0.0 1.0 0.00 0.00 0.00 93 1010.4
20170625143838 63 42 0.0 4.0 0.00 0.00 0.00 93 1010.5
20170625142839 62 40 1.0 2.0 0.00 0.00 0.00 94 1010.4
20170625141836 62 68 1.0 2.0 0.00 0.00 0.00 94 1010.4
20170625140838 62 44 0.0 2.0 0.00 0.00 0.00 95 1010.3
20170625135838 62 322 0.0 1.0 0.00 0.00 0.00 95 1010.3
20170625134836 62 39 1.0 3.0 0.00 0.00 0.00 95 1010.2
20170625133838 62 72 1.0 3.0 0.00 0.00 0.00 95 1010.2
20170625132836 62 98 1.0 4.0 0.00 0.00 0.00 95 1010.0
20170625131834 62 40 1.0 3.0 0.00 0.00 0.00 95 1010.0
20170625130834 62 60 1.0 2.0 0.00 0.00 0.00 95 1009.9
20170625125833 62 46 2.0 5.0 0.00 0.00 0.00 95 1009.9
20170625124839 62 79 1.0 4.0 0.00 0.00 0.00 94 1009.7
20170625123834 62 68 1.0 4.0 0.00 0.00 0.00 94 1009.7
20170625122832 62 26 0.0 2.0 0.00 0.00 0.00 95 1009.7
20170625121835 62 301 0.0 2.0 0.00 0.00 0.00 95 1009.6
20170625120832 62 316 0.0 3.0 0.00 0.00 0.00 95 1009.6
20170625115831 62 121 1.0 3.0 0.00 0.00 0.00 95 1009.6
20170625114831 62 47 0.0 2.0 0.00 0.00 0.00 94 1009.5
20170625113832 62 4 1.0 2.0 0.00 0.00 0.00 94 1009.4
20170625112831 62 33 1.0 2.0 0.00 0.00 0.00 94 1009.4
20170625111831 62 15 0.0 2.0 0.00 0.00 0.00 94 1009.4
20170625110828 62 126 0.0 1.0 0.00 0.00 0.00 94 1009.4
20170625105826 62 257 1.0 3.0 0.00 0.00 0.00 94 1009.3
20170625104826 62 288 1.0 4.0 0.00 0.00 0.00 93 1009.3
20170625103826 63 238 1.0 3.0 0.00 0.00 0.00 93 1009.3